Regional Weather Roundup
Issued by NWS Goodland, KS

Home | Current Version | Previous Version | Text Only | Print | Product List | Glossary On
Versions: 1 2 3 4 5 6 7 8 9 10 11 12 13 14 15 16 17 18 19 20 21 22 23 24 25 26 27 28 29 30 31 32 33 34 35 36 37 38 39 40 41 42 43 44 45 46 47 48 49 50
000
ASUS43 KGLD 220759
RWRGLD

GOODLAND FORECAST AREA HOURLY WEATHER ROUNDUP
NATIONAL WEATHER SERVICE GOODLAND KS
100 AM MST WED NOV 22 2017

...OFFICIAL OBSERVATIONS...

CITY           SKY/WX    TMP DP  RH WIND       PRES   REMARKS
GOODLAND KS    CLOUDY    31  23  72 S7        30.30S
HILL CITY KS   CLOUDY    20  14  77 N3        30.39S
IMPERIAL NEB   CLOUDY    27  24  89 S5        30.28F
MCCOOK NEB     CLOUDY    23  16  74 E3        30.34F
AKRON CO       CLOUDY    38  27  64 SW16      30.24F
BURLINGTON CO  CLOUDY    29  23  78 SW12      30.29F WCI  19
LIMON CO       CLOUDY    30  25  81 E6        30.30F
$$

...UNOFFICIAL OBSERVATIONS...

CITY           SKY/WX    TMP DP  RH WIND       PRES   REMARKS
LENORA KS        N/A     22  32 100 S6          N/A
NORTON KS      CLEAR     21   9  58 CALM      30.36
SHARON SPRINGS   N/A     28  22  78 S9          N/A
KIT CARSON CO    N/A     26  20  79 CALM        N/A
YUMA CO        FAIR      32  28  86 SW8       30.24F
$$




USA.gov is the U.S. government's official web portal to all federal, state and local government web resources and services.